Вернуться в каталог

INTELSAT 30

АктивенСвязьGEO
NORAD 40271·PAYLOAD· XX

Запущен Oct 16, 2014 с Guiana Space Centre

Loading…

TLE

СвежийSource: CelesTrak SupGP

Эпоха: Sep 14, 2026, 00:00 UTC

1 40271C 14062A   26257.00000000 -.00000061  00000+0  00000+0 0  2572
2 40271   0.0074  94.0029 0001675 321.6456 202.2955  1.00271945    12

Отслеживайте INTELSAT 30 в реальном времени с AllMySat

Download on the App Store